| time (UTC) | temp F | wind direction | speed knots | gust knots | rain 1hr in | rain 24hr in | rain mn in | humidity % | barometer mb |
| 20260906114516 | 71 | 0.0 | 1.7 | 0.00 | 0.00 | 0.00 | 91 | 1011.2 | |
| 20260906113516 | 71 | 0.0 | 1.7 | 0.00 | 0.00 | 0.00 | 91 | 1011.1 | |
| 20260906112517 | 71 | 0.0 | 0.0 | 0.00 | 0.00 | 0.00 | 91 | 1011.1 | |
| 20260906111517 | 71 | 0.0 | 1.7 | 0.00 | 0.00 | 0.00 | 91 | 1010.9 | |
| 20260906110558 | 71 | 0.0 | 0.0 | 0.00 | 0.00 | 0.00 | 90 | 1010.8 | |
| 20260906105516 | 71 | 0.0 | 1.7 | 0.00 | 0.00 | 0.00 | 90 | 1010.5 | |
| 20260906104517 | 71 | 0.0 | 1.7 | 0.00 | 0.00 | 0.00 | 90 | 1010.4 | |
| 20260906103537 | 71 | 0.0 | 1.7 | 0.00 | 0.00 | 0.00 | 90 | 1010.1 | |
| 20260906102516 | 71 | 0.0 | 1.7 | 0.00 | 0.00 | 0.00 | 90 | 1010.4 | |
| 20260906101517 | 71 | 0.0 | 1.7 | 0.00 | 0.00 | 0.00 | 90 | 1010.6 | |
| 20260906100516 | 71 | 0.0 | 0.9 | 0.00 | 0.00 | 0.00 | 90 | 1010.5 | |
| 20260906095537 | 71 | 0.0 | 0.0 | 0.00 | 0.00 | 0.00 | 91 | 1010.5 | |
| 20260906094616 | 71 | 0.0 | 0.0 | 0.00 | 0.00 | 0.00 | 91 | 1010.4 | |
| 20260906093537 | 71 | 0.0 | 0.9 | 0.00 | 0.00 | 0.00 | 91 | 1010.3 | |
| 20260906092516 | 71 | 0.0 | 1.7 | 0.00 | 0.00 | 0.00 | 91 | 1010.2 | |
| 20260906091537 | 71 | 0.0 | 1.7 | 0.00 | 0.00 | 0.00 | 91 | 1010.3 | |
| 20260906090553 | 71 | 0.0 | 0.0 | 0.00 | 0.00 | 0.00 | 91 | 1010.2 | |
| 20260906085558 | 70 | 0.0 | 1.7 | 0.00 | 0.00 | 0.00 | 91 | 1010.1 | |
| 20260906084517 | 70 | 0.0 | 0.0 | 0.00 | 0.00 | 0.00 | 91 | 1010.2 | |
| 20260906083516 | 70 | 0.0 | 0.0 | 0.00 | 0.00 | 0.00 | 90 | 1010.2 | |
| 20260906082516 | 70 | 0.0 | 1.7 | 0.00 | 0.00 | 0.00 | 90 | 1010.1 | |
| 20260906081618 | 70 | 0.0 | 0.0 | 0.00 | 0.00 | 0.00 | 90 | 1010.1 | |
| 20260906080516 | 70 | 0.0 | 1.7 | 0.00 | 0.00 | 0.00 | 90 | 1010.1 | |
| 20260906075517 | 70 | 0.0 | 0.0 | 0.00 | 0.00 | 0.00 | 90 | 1010.1 | |
| 20260906074516 | 70 | 0.0 | 1.7 | 0.00 | 0.00 | 0.00 | 90 | 1009.9 | |
| 20260906073519 | 70 | 0.0 | 1.7 | 0.00 | 0.00 | 0.00 | 90 | 1010.1 | |
| 20260906072516 | 71 | 0.0 | 1.7 | 0.00 | 0.00 | 0.00 | 90 | 1010.3 | |
| 20260906071519 | 71 | 0.0 | 1.7 | 0.00 | 0.00 | 0.00 | 90 | 1010.4 | |
| 20260906070518 | 71 | 0.0 | 0.0 | 0.00 | 0.00 | 0.00 | 90 | 1010.5 | |
| 20260906065517 | 71 | 0.0 | 0.0 | 0.00 | 0.00 | 0.00 | 90 | 1010.6 | |
| 20260906064516 | 71 | 0.0 | 0.0 | 0.00 | 0.00 | 0.00 | 90 | 1010.4 | |
| 20260906063536 | 71 | 0.0 | 0.0 | 0.00 | 0.00 | 0.00 | 89 | 1010.4 | |
| 20260906062557 | 71 | 0.0 | 0.0 | 0.00 | 0.00 | 0.00 | 89 | 1010.5 | |
| 20260906061516 | 71 | 0.0 | 0.0 | 0.00 | 0.00 | 0.00 | 89 | 1010.5 | |
| 20260906060518 | 71 | 0.0 | 0.0 | 0.00 | 0.00 | 0.00 | 88 | 1010.7 | |
| 20260906055516 | 72 | 0.0 | 1.7 | 0.00 | 0.00 | 0.00 | 88 | 1010.9 | |
| 20260906054516 | 72 | 0.0 | 1.7 | 0.00 | 0.00 | 0.00 | 87 | 1010.9 | |
| 20260906053516 | 72 | 0.0 | 0.0 | 0.00 | 0.00 | 0.00 | 87 | 1010.9 | |
| 20260906052517 | 72 | 0.0 | 1.7 | 0.00 | 0.00 | 0.00 | 87 | 1011.1 | |
| 20260906051518 | 72 | 0.0 | 1.7 | 0.00 | 0.00 | 0.00 | 87 | 1011.3 | |
| 20260906050525 | 72 | 0.0 | 1.7 | 0.00 | 0.00 | 0.00 | 87 | 1011.5 | |
| 20260906045516 | 72 | 180 | 0.9 | 0.9 | 0.00 | 0.00 | 0.00 | 87 | 1011.5 |
| 20260906044517 | 73 | 0.0 | 1.7 | 0.00 | 0.00 | 0.00 | 87 | 1011.4 | |
| 20260906043516 | 73 | 0.0 | 1.7 | 0.00 | 0.00 | 0.00 | 87 | 1011.2 | |
| 20260906042518 | 73 | 0.0 | 1.7 | 0.00 | 0.00 | 0.00 | 86 | 1011.1 | |
| 20260906041516 | 73 | 338 | 0.9 | 0.9 | 0.00 | 0.00 | 0.00 | 86 | 1011.0 |
| 20260906040538 | 73 | 0.0 | 1.7 | 0.00 | 0.00 | 0.00 | 85 | 1010.5 | |
| 20260906035516 | 73 | 0.0 | 1.7 | 0.00 | 0.00 | 0.00 | 85 | 1010.3 | |
| 20260906034516 | 74 | 0.0 | 1.7 | 0.00 | 0.00 | 0.00 | 84 | 1010.4 | |
| 20260906033516 | 74 | 0.0 | 0.9 | 0.00 | 0.00 | 0.00 | 83 | 1010.6 | |
| 20260906032516 | 74 | 0.0 | 0.9 | 0.00 | 0.00 | 0.00 | 83 | 1010.8 | |
| 20260906031516 | 75 | 0.0 | 1.7 | 0.00 | 0.00 | 0.00 | 82 | 1010.6 | |
| 20260906030518 | 76 | 0.0 | 1.7 | 0.00 | 0.00 | 0.00 | 79 | 1010.6 | |
| 20260906025516 | 77 | 0.0 | 1.7 | 0.00 | 0.00 | 0.00 | 78 | 1010.6 | |
| 20260906024517 | 78 | 0.0 | 0.9 | 0.00 | 0.00 | 0.00 | 74 | 1010.7 | |
| 20260906023516 | 78 | 0.0 | 1.7 | 0.00 | 0.00 | 0.00 | 74 | 1010.9 | |
| 20260906022536 | 78 | 68 | 1.7 | 3.5 | 0.00 | 0.00 | 0.00 | 70 | 1011.0 |
| 20260906021516 | 79 | 68 | 0.9 | 1.7 | 0.00 | 0.00 | 0.00 | 68 | 1010.7 |
| 20260906020516 | 79 | 248 | 0.9 | 1.7 | 0.00 | 0.00 | 0.00 | 67 | 1010.6 |
| 20260906015517 | 80 | 270 | 0.9 | 1.7 | 0.00 | 0.00 | 0.00 | 66 | 1010.8 |
| 20260906014515 | 81 | 0.0 | 0.0 | 0.00 | 0.00 | 0.00 | 64 | 1011.2 | |
| 20260906013516 | 81 | 23 | 0.9 | 1.7 | 0.00 | 0.00 | 0.00 | 63 | 1011.5 |
| 20260906012516 | 82 | 0 | 0.9 | 2.6 | 0.00 | 0.00 | 0.00 | 61 | 1011.4 |
| 20260906011517 | 83 | 0 | 1.7 | 3.5 | 0.00 | 0.00 | 0.00 | 60 | 1011.3 |
| 20260906010537 | 84 | 293 | 0.9 | 1.7 | 0.00 | 0.00 | 0.00 | 62 | 1011.1 |
| 20260906005516 | 84 | 270 | 1.7 | 7.0 | 0.00 | 0.00 | 0.00 | 63 | 1010.7 |
| 20260906004517 | 84 | 315 | 1.7 | 6.1 | 0.00 | 0.00 | 0.00 | 67 | 1010.7 |
| 20260906003516 | 84 | 0 | 0.9 | 2.6 | 0.00 | 0.00 | 0.00 | 71 | 1010.6 |
| 20260906002516 | 85 | 338 | 0.9 | 2.6 | 0.00 | 0.00 | 0.00 | 70 | 1009.8 |
| 20260906001517 | 85 | 270 | 0.9 | 4.3 | 0.00 | 0.00 | 0.00 | 69 | 1009.6 |
| 20260906000517 | 86 | 0.0 | 0.0 | 0.00 | 0.00 | 0.00 | 68 | 1009.8 | |
| 20260905235517 | 86 | 0.0 | 0.9 | 0.00 | 0.00 | 0.00 | 67 | 1009.5 | |
| 20260905234517 | 86 | 225 | 0.9 | 2.6 | 0.00 | 0.00 | 0.00 | 66 | 1009.1 |
| 20260905233516 | 87 | 225 | 1.7 | 3.5 | 0.00 | 0.00 | 0.00 | 65 | 1008.9 |
| 20260905232516 | 87 | 225 | 1.7 | 4.3 | 0.00 | 0.00 | 0.00 | 65 | 1009.2 |
| 20260905231516 | 88 | 225 | 2.6 | 5.2 | 0.00 | 0.00 | 0.00 | 64 | 1009.4 |
| 20260905230545 | 88 | 225 | 1.7 | 6.1 | 0.00 | 0.00 | 0.00 | 65 | 1009.4 |
| 20260905225516 | 89 | 225 | 2.6 | 7.8 | 0.00 | 0.00 | 0.00 | 65 | 1009.4 |
| 20260905224517 | 89 | 248 | 1.7 | 4.3 | 0.00 | 0.00 | 0.00 | 65 | 1009.5 |
| 20260905223537 | 89 | 225 | 0.9 | 4.3 | 0.00 | 0.00 | 0.00 | 65 | 1009.3 |
| 20260905222516 | 90 | 225 | 1.7 | 4.3 | 0.00 | 0.00 | 0.00 | 63 | 1009.3 |
| 20260905221517 | 91 | 225 | 2.6 | 6.1 | 0.00 | 0.00 | 0.00 | 61 | 1009.3 |
| 20260905220517 | 92 | 203 | 2.6 | 6.1 | 0.00 | 0.00 | 0.00 | 61 | 1009.2 |
| 20260905215516 | 91 | 225 | 3.5 | 7.0 | 0.00 | 0.00 | 0.00 | 61 | 1009.3 |
| 20260905214517 | 91 | 225 | 5.2 | 10.4 | 0.00 | 0.00 | 0.00 | 60 | 1009.2 |
| 20260905213517 | 92 | 225 | 3.5 | 7.8 | 0.00 | 0.00 | 0.00 | 61 | 1009.3 |
| 20260905212516 | 92 | 225 | 2.6 | 6.1 | 0.00 | 0.00 | 0.00 | 61 | 1009.2 |
| 20260905211516 | 92 | 225 | 3.5 | 7.0 | 0.00 | 0.00 | 0.00 | 62 | 1009.3 |
| 20260905210517 | 92 | 225 | 2.6 | 7.8 | 0.00 | 0.00 | 0.00 | 61 | 1009.3 |
| 20260905205516 | 93 | 225 | 1.7 | 5.2 | 0.00 | 0.00 | 0.00 | 59 | 1009.4 |
| 20260905204517 | 94 | 225 | 3.5 | 7.8 | 0.00 | 0.00 | 0.00 | 57 | 1009.4 |
| 20260905203536 | 95 | 225 | 4.3 | 9.6 | 0.00 | 0.00 | 0.00 | 55 | 1009.4 |
| 20260905202516 | 96 | 225 | 3.5 | 9.6 | 0.00 | 0.00 | 0.00 | 53 | 1009.3 |
| 20260905201519 | 98 | 135 | 1.7 | 3.5 | 0.00 | 0.00 | 0.00 | 46 | 1009.4 |
| 20260905200516 | 99 | 0.0 | 1.7 | 0.00 | 0.00 | 0.00 | 46 | 1009.7 | |
| 20260905195516 | 100 | 180 | 1.7 | 5.2 | 0.00 | 0.00 | 0.00 | 44 | 1009.9 |
| 20260905194516 | 100 | 158 | 0.9 | 2.6 | 0.00 | 0.00 | 0.00 | 43 | 1010.0 |
| 20260905193516 | 100 | 180 | 0.9 | 2.6 | 0.00 | 0.00 | 0.00 | 44 | 1010.3 |
| 20260905192517 | 99 | 113 | 1.7 | 3.5 | 0.00 | 0.00 | 0.00 | 46 | 1010.5 |
| 20260905191518 | 98 | 113 | 0.9 | 3.5 | 0.00 | 0.00 | 0.00 | 49 | 1010.7 |
| 20260905190606 | 98 | 135 | 3.5 | 7.0 | 0.00 | 0.00 | 0.00 | 46 | 1010.8 |
| 20260905185516 | 99 | 180 | 2.6 | 6.1 | 0.00 | 0.00 | 0.00 | 47 | 1010.6 |
| 20260905184516 | 98 | 180 | 0.9 | 2.6 | 0.00 | 0.00 | 0.00 | 50 | 1010.5 |
| 20260905183516 | 98 | 90 | 0.9 | 2.6 | 0.00 | 0.00 | 0.00 | 47 | 1010.7 |
| 20260905182517 | 96 | 45 | 2.6 | 6.1 | 0.00 | 0.00 | 0.00 | 48 | 1010.9 |
| 20260905181517 | 96 | 135 | 2.6 | 7.0 | 0.00 | 0.00 | 0.00 | 52 | 1011.0 |
| 20260905180517 | 96 | 113 | 3.5 | 7.0 | 0.00 | 0.00 | 0.00 | 51 | 1011.1 |
| 20260905175517 | 96 | 225 | 1.7 | 3.5 | 0.00 | 0.00 | 0.00 | 50 | 1011.2 |
| 20260905174516 | 96 | 180 | 1.7 | 4.3 | 0.00 | 0.00 | 0.00 | 54 | 1011.5 |
| 20260905173517 | 95 | 180 | 1.7 | 4.3 | 0.00 | 0.00 | 0.00 | 51 | 1011.5 |
| 20260905172516 | 94 | 225 | 0.9 | 1.7 | 0.00 | 0.00 | 0.00 | 53 | 1011.7 |
| 20260905171516 | 93 | 0.0 | 1.7 | 0.00 | 0.00 | 0.00 | 53 | 1011.8 | |
| 20260905170519 | 93 | 0 | 0.9 | 1.7 | 0.00 | 0.00 | 0.00 | 55 | 1011.9 |
| 20260905165516 | 94 | 90 | 2.6 | 6.1 | 0.00 | 0.00 | 0.00 | 51 | 1012.1 |
| 20260905164518 | 94 | 45 | 1.7 | 5.2 | 0.00 | 0.00 | 0.00 | 54 | 1012.4 |
| 20260905163516 | 94 | 0 | 0.9 | 2.6 | 0.00 | 0.00 | 0.00 | 58 | 1012.5 |
| 20260905162516 | 93 | 113 | 1.7 | 2.6 | 0.00 | 0.00 | 0.00 | 59 | 1012.6 |
| 20260905161518 | 93 | 45 | 0.9 | 3.5 | 0.00 | 0.00 | 0.00 | 62 | 1012.6 |
| 20260905160516 | 92 | 23 | 0.9 | 1.7 | 0.00 | 0.00 | 0.00 | 63 | 1012.7 |
| 20260905155516 | 92 | 90 | 2.6 | 3.5 | 0.00 | 0.00 | 0.00 | 63 | 1012.8 |
| 20260905154516 | 92 | 113 | 0.9 | 3.5 | 0.00 | 0.00 | 0.00 | 64 | 1012.9 |
| 20260905153516 | 91 | 225 | 0.9 | 2.6 | 0.00 | 0.00 | 0.00 | 68 | 1013.0 |
| 20260905152516 | 90 | 135 | 1.7 | 5.2 | 0.00 | 0.00 | 0.00 | 67 | 1013.0 |
| 20260905151517 | 90 | 180 | 0.9 | 1.7 | 0.00 | 0.00 | 0.00 | 69 | 1013.0 |
| 20260905150525 | 89 | 45 | 1.7 | 5.2 | 0.00 | 0.00 | 0.00 | 69 | 1013.1 |
| 20260905145516 | 88 | 90 | 0.9 | 1.7 | 0.00 | 0.00 | 0.00 | 72 | 1013.1 |
| 20260905144516 | 88 | 45 | 0.9 | 2.6 | 0.00 | 0.00 | 0.00 | 72 | 1013.1 |
| 20260905143516 | 87 | 0.0 | 2.6 | 0.00 | 0.00 | 0.00 | 75 | 1013.2 | |
| 20260905142517 | 86 | 270 | 0.9 | 2.6 | 0.00 | 0.00 | 0.00 | 75 | 1013.4 |
| 20260905141516 | 86 | 225 | 0.9 | 2.6 | 0.00 | 0.00 | 0.00 | 76 | 1013.4 |
| 20260905140516 | 85 | 225 | 0.9 | 1.7 | 0.00 | 0.00 | 0.00 | 81 | 1013.3 |
| 20260905135516 | 83 | 0 | 0.9 | 1.7 | 0.00 | 0.00 | 0.00 | 81 | 1013.4 |
| 20260905134516 | 82 | 68 | 0.9 | 1.7 | 0.00 | 0.00 | 0.00 | 82 | 1013.4 |
| 20260905133516 | 81 | 0 | 0.9 | 0.9 | 0.00 | 0.00 | 0.00 | 85 | 1013.4 |
| 20260905132518 | 80 | 315 | 0.9 | 1.7 | 0.00 | 0.00 | 0.00 | 88 | 1013.4 |
| 20260905131516 | 79 | 203 | 0.9 | 1.7 | 0.00 | 0.00 | 0.00 | 91 | 1013.5 |
| 20260905130515 | 77 | 248 | 0.9 | 3.5 | 0.00 | 0.00 | 0.00 | 92 | 1013.5 |
| 20260905125516 | 77 | 0.0 | 1.7 | 0.00 | 0.00 | 0.00 | 93 | 1013.4 | |
| 20260905124516 | 76 | 0.0 | 1.7 | 0.00 | 0.00 | 0.00 | 93 | 1013.5 | |
| 20260905123515 | 75 | 0.0 | 1.7 | 0.00 | 0.00 | 0.00 | 93 | 1013.5 | |
| 20260905122517 | 75 | 0.0 | 0.9 | 0.00 | 0.00 | 0.00 | 93 | 1013.4 | |
| 20260905121518 | 74 | 0.0 | 1.7 | 0.00 | 0.00 | 0.00 | 93 | 1013.5 | |
| 20260905120518 | 74 | 203 | 0.9 | 1.7 | 0.00 | 0.00 | 0.00 | 93 | 1013.3 |
| 20260905115548 | 73 | 0.0 | 1.7 | 0.00 | 0.00 | 0.00 | 93 | 1013.2 |